{"data":{"norad_id":58457,"epoch":"2026-09-20T18:32:33.653472Z","epoch_age_seconds":123241,"freshness":"FRESH","line1":"1 58457U 23183W   26263.77261173  .00000289  00000+0  20032-4 0  9998","line2":"2 58457  43.0038  19.5603 0001034 274.3266  85.7468 15.27580135156570","mean_motion":15.27580135,"eccentricity":0.0001034,"inclination_deg":43.0038,"raan_deg":19.5603,"arg_perigee_deg":274.3266,"mean_anomaly_deg":85.7468,"bstar":2.0032e-5,"rev_number":15657,"period_min":94.266740382821,"perigee_km":482.33924520059,"apogee_km":483.75813840165,"semimajor_km":6861.1856918011,"source":"CELESTRAK","updated_at":"2026-09-21T09:00:33.879461Z"}}